EST,Max TemperatureF,Mean TemperatureF,Min TemperatureF,Max Dew PointF,MeanDew PointF,Min DewpointF,Max Humidity, Mean Humidity, Min Humidity, Max Sea Level PressureIn, Mean Sea Level PressureIn, Min Sea Level PressureIn, Max VisibilityMiles, Mean VisibilityMiles, Min VisibilityMiles, Max Wind SpeedMPH, Mean Wind SpeedMPH, Max Gust SpeedMPH,PrecipitationIn, CloudCover, Events, WindDirDegrees
2010-11-1,43,36,30,31,25,20,92,69,41,30.45,30.33,30.19,10,10,10,10,7,,0.00,3,,343
2010-11-2,44,34,24,25,23,21,88,65,42,30.49,30.41,30.28,10,10,10,9,5,,0.00,1,,100
2010-11-3,54,42,30,32,28,23,79,62,43,30.25,30.06,29.84,10,10,10,12,7,16,0.00,1,,174
2010-11-4,43,39,35,40,37,33,100,94,70,29.82,29.64,29.52,10,6,0,14,4,,0.61,8,Fog-Rain,295
2010-11-5,37,35,33,36,34,28,100,95,81,29.97,29.65,29.49,10,5,0,20,11,30,0.09,8,Fog-Rain-Snow,284
2010-11-6,39,34,30,31,29,27,96,88,65,30.37,30.19,29.99,10,8,1,12,7,16,0.01,8,Snow,285
2010-11-7,39,34,28,30,25,20,100,76,52,30.43,30.33,30.17,10,10,6,13,8,18,0.00,4,Snow,277
2010-11-8,48,40,33,31,26,20,76,58,44,30.13,29.99,29.89,10,10,10,24,14,34,0.00,0,,295
2010-11-9,51,40,30,36,31,27,89,72,54,30.10,30.05,29.97,10,9,5,12,8,,0.00,0,,303
2010-11-10,57,44,32,38,31,23,100,70,30,30.29,30.19,30.11,10,7,0,8,4,,0.00,1,Fog,21
2010-11-11,60,48,35,29,24,18,73,44,26,30.45,30.39,30.29,10,10,10,6,2,,0.00,0,,129
2010-11-12,60,50,39,25,13,1,41,26,9,30.45,30.39,30.30,10,10,10,8,4,,0.00,0,,175
2010-11-13,63,52,42,23,12,2,28,22,17,30.29,30.18,30.07,10,10,10,7,5,,0.00,0,,190
2010-11-14,57,50,42,46,38,15,100,75,29,30.05,29.98,29.93,10,7,0,14,6,,0.23,6,Fog-Rain,225
2010-11-15,45,40,35,43,36,34,100,88,68,30.06,30.00,29.96,10,6,1,8,4,,0.02,4,Rain,303
2010-11-16,50,46,41,50,44,40,100,96,83,29.98,29.73,29.46,10,5,0,17,9,30,0.84,8,Fog-Rain,131
2010-11-17,48,42,37,43,36,32,93,80,73,30.07,29.80,29.44,10,9,6,36,17,47,0.07,6,Rain,253
2010-11-18,39,36,33,36,33,30,93,87,73,30.22,30.13,30.04,10,8,4,16,10,25,0.01,8,Rain,262
2010-11-19,39,34,30,30,27,25,93,75,56,30.32,30.23,30.15,10,10,7,15,10,20,0.00,4,Rain,264
2010-11-20,44,40,35,36,35,33,100,86,68,30.34,30.22,30.09,10,6,2,24,15,38,0.00,5,,270
2010-11-21,50,42,33,38,35,32,100,85,61,30.40,30.33,30.27,10,6,0,15,5,21,0.00,2,Fog-Rain,164
2010-11-22,64,54,43,45,42,35,76,62,48,30.27,30.16,30.03,10,10,10,15,10,23,0.00,3,,198
2010-11-23,57,46,33,50,39,18,96,66,28,30.16,29.97,29.90,10,10,9,26,13,34,0.01,5,Rain,252
2010-11-24,36,31,26,26,21,18,85,65,52,30.32,30.24,30.13,10,10,2,28,14,38,0.00,4,Snow,340
2010-11-25,39,34,30,38,31,27,100,95,85,30.18,29.94,29.62,10,4,1,21,11,26,1.15,8,Rain-Snow,149
2010-11-26,48,36,24,46,30,15,100,84,56,29.77,29.68,29.57,10,7,0,26,13,40,0.26,7,Fog-Rain-Snow,263
2010-11-27,27,25,23,23,18,15,93,76,66,30.18,29.89,29.67,10,7,0,29,20,40,0.00,8,Fog-Snow,271
2010-11-28,36,28,21,20,19,17,86,68,52,30.38,30.33,30.20,10,10,10,9,5,,0.00,2,,222
2010-11-29,41,34,27,28,22,19,73,65,47,30.43,30.36,30.25,10,10,10,15,10,21,0.00,0,,151
2010-11-30,54,45,36,52,42,27,100,91,65,30.25,30.01,29.68,10,6,2,26,18,44,1.21,8,Rain,153